Weather History for Litchfield, MN

Change the Weather History Date:

Saturday, May 26, 2012

  Actual Average Record
Temperature  
Mean Temperature 58 °F -  
Max Temperature 64 °F 72 °F 92 °F (1978)
Min Temperature 53 °F 50 °F 35 °F (1971)
Degree Days  
Heating Degree Days 6    
Growing Degree Days 8 (Base 50)    
Moisture  
Dew Point 58 °F    
Average Humidity 95    
Maximum Humidity 100    
Minimum Humidity 82    
Precipitation  
Precipitation 0.32 in - - ()
Sea Level Pressure  
Sea Level Pressure 30.01 in    
Wind  
Wind Speed 8 mph (East)    
Max Wind Speed 21 mph    
Max Gust Speed 29 mph    
Visibility 8 miles    
Events Rain , Thunderstorm    
Averages and records for this station are not official NWS values.
T = Trace of Precipitation, MM = Missing Value Source: NWS Daily Summary

Daily Weather History Graph

Daily Weather History Graph

Search for Another Location

Airport:

Trip Planner

Search our weather history database for the weather conditions in past years. The results will help you decide how hot, cold, wet, or windy it might be!

Date:

Astronomy

May. 26, 2012 Rise Set
Actual Time 5:37 AM CDT 8:53 PM CDT
Civil Twilight 5:02 AM CDT 9:28 PM CDT
Nautical Twilight 4:15 AM CDT 10:15 PM CDT
Astronomical Twilight 3:18 AM CDT 11:13 PM CDT
Moon 10:46 AM CDT (5/26) 12:22 AM CDT (5/26)
Length of Visible Light 16h 26m
Length of Day
15h 15m
Waxing Crescent, 28% of the Moon is Illuminated
May 26
Waxing Crescent
May 28
First Quarter
Jun 4
Full
Jun 11
Last Quarter
Jun 19
New

Hourly Weather History & Observations

Time (CDT) Temp. Dew Point Humidity Pressure Visibility Wind Dir Wind Speed Gust Speed Precip Events Conditions
12:13 AM 59.0 °F 55.4 °F 88% 30.11 in 10.0 mi Calm Calm - N/A   Mostly Cloudy
12:33 AM 59.0 °F 55.4 °F 88% 30.11 in 10.0 mi Calm Calm - N/A   Overcast
12:53 AM 59.0 °F 55.4 °F 88% 30.11 in 10.0 mi Calm Calm - N/A   Overcast
1:13 AM 57.2 °F 55.4 °F 94% 30.11 in 10.0 mi East 3.5 mph - N/A   Mostly Cloudy
1:33 AM 57.2 °F 55.4 °F 94% 30.11 in 10.0 mi ESE 5.8 mph - N/A   Scattered Clouds
1:53 AM 57.2 °F 55.4 °F 94% 30.10 in 10.0 mi East 4.6 mph - N/A   Mostly Cloudy
2:13 AM 57.2 °F 55.4 °F 94% 30.09 in 10.0 mi NE 5.8 mph - N/A   Mostly Cloudy
2:33 AM 57.2 °F 55.4 °F 94% 30.10 in 10.0 mi ENE 4.6 mph - N/A   Mostly Cloudy
2:53 AM 57.2 °F 55.4 °F 94% 30.09 in 10.0 mi ENE 5.8 mph - N/A   Mostly Cloudy
3:13 AM 57.2 °F 55.4 °F 94% 30.10 in 10.0 mi East 4.6 mph - N/A   Mostly Cloudy
3:33 AM 57.2 °F 55.4 °F 94% 30.09 in 10.0 mi ENE 4.6 mph - N/A   Overcast
3:53 AM 57.2 °F 55.4 °F 94% 30.09 in 10.0 mi ENE 4.6 mph - N/A   Mostly Cloudy
4:13 AM 57.2 °F 55.4 °F 94% 30.10 in 10.0 mi ENE 5.8 mph - N/A   Mostly Cloudy
4:33 AM 57.2 °F 55.4 °F 94% 30.10 in 10.0 mi ENE 6.9 mph - N/A   Overcast
4:52 AM 57.2 °F 55.4 °F 94% 30.09 in 10.0 mi ENE 6.9 mph - N/A   Overcast
5:13 AM 57.2 °F 55.4 °F 94% 30.08 in 10.0 mi ENE 9.2 mph - N/A   Overcast
5:33 AM 57.2 °F 53.6 °F 88% 30.07 in 10.0 mi East 8.1 mph - N/A   Overcast
5:52 AM 57.2 °F 53.6 °F 88% 30.08 in 10.0 mi ENE 5.8 mph - N/A   Overcast
6:13 AM 57.2 °F 53.6 °F 88% 30.08 in 10.0 mi ENE 6.9 mph - N/A   Overcast
6:33 AM 57.2 °F 53.6 °F 88% 30.08 in 10.0 mi ENE 6.9 mph - N/A   Overcast
6:53 AM 57.2 °F 53.6 °F 88% 30.07 in 10.0 mi East 8.1 mph - N/A   Overcast
7:13 AM 57.2 °F 53.6 °F 88% 30.07 in 10.0 mi East 11.5 mph - N/A   Overcast
7:33 AM 59.0 °F 53.6 °F 82% 30.04 in 10.0 mi ENE 11.5 mph - N/A   Mostly Cloudy
7:53 AM 57.2 °F 53.6 °F 88% 30.06 in 10.0 mi East 10.4 mph - N/A   Mostly Cloudy
8:14 AM 57.2 °F 53.6 °F 88% 30.07 in 10.0 mi East 10.4 mph 16.1 mph N/A Thunderstorm Overcast
8:33 AM 57.2 °F 53.6 °F 88% 30.09 in 10.0 mi NE 6.9 mph - N/A Rain , Thunderstorm Light Thunderstorms and Rain
8:53 AM 57.2 °F 55.4 °F 94% 30.10 in 4.0 mi Calm Calm - 0.01 in Rain , Thunderstorm Thunderstorms and Rain
9:12 AM 55.4 °F 55.4 °F 100% 30.16 in 10.0 mi NW 5.8 mph - 0.08 in Rain , Thunderstorm Thunderstorms and Rain
9:33 AM 55.4 °F 55.4 °F 100% 30.18 in 10.0 mi North 6.9 mph - 0.21 in Rain , Thunderstorm Thunderstorms and Rain
9:53 AM 55.4 °F 55.4 °F 100% 30.06 in 7.0 mi NE 18.4 mph 24.2 mph 0.05 in Rain Rain
10:12 AM 53.6 °F 53.6 °F 100% 30.00 in 10.0 mi ENE 19.6 mph 26.5 mph 0.08 in Rain , Thunderstorm Light Thunderstorms and Rain
10:33 AM 55.4 °F 55.4 °F 100% 30.07 in 10.0 mi East 4.6 mph - 0.08 in Rain Light Rain
10:53 AM 55.4 °F 55.4 °F 100% 30.05 in 10.0 mi ENE 10.4 mph - N/A   Clear
11:13 AM 55.4 °F 55.4 °F 100% 30.03 in 10.0 mi East 13.8 mph - N/A   Clear
11:33 AM 57.2 °F 57.2 °F 100% 30.01 in 10.0 mi East 19.6 mph - N/A   Clear
11:53 AM 59.0 °F 57.2 °F 94% 30.01 in 10.0 mi East 15.0 mph 20.7 mph N/A   Mostly Cloudy
12:13 PM 60.8 °F 59.0 °F 94% 30.00 in 10.0 mi East 13.8 mph 24.2 mph N/A   Overcast
12:33 PM 62.6 °F 60.8 °F 94% 29.99 in 10.0 mi East 20.7 mph - N/A   Mostly Cloudy
12:53 PM 60.8 °F 57.2 °F 88% 30.00 in 10.0 mi ESE 17.3 mph 28.8 mph N/A   Mostly Cloudy
1:13 PM 60.8 °F 59.0 °F 94% 30.00 in 10.0 mi East 15.0 mph 24.2 mph N/A   Overcast
1:33 PM 60.8 °F 59.0 °F 94% 30.00 in 10.0 mi East 12.7 mph 18.4 mph N/A   Overcast
1:53 PM 62.6 °F 60.8 °F 94% 29.99 in 10.0 mi ESE 12.7 mph 23.0 mph N/A   Overcast
2:13 PM 64.4 °F 60.8 °F 88% 29.99 in 10.0 mi ESE 15.0 mph - N/A   Overcast
2:33 PM 62.6 °F 60.8 °F 94% 29.98 in 10.0 mi ESE 15.0 mph 21.9 mph N/A   Overcast
2:53 PM 62.6 °F 60.8 °F 94% 29.97 in 10.0 mi East 12.7 mph - N/A   Overcast
3:13 PM 62.6 °F 60.8 °F 94% 29.96 in 10.0 mi East 12.7 mph 20.7 mph N/A   Overcast
3:33 PM 62.6 °F 60.8 °F 94% 29.96 in 10.0 mi East 13.8 mph 18.4 mph N/A   Overcast
3:53 PM 62.6 °F 60.8 °F 94% 29.94 in 10.0 mi East 12.7 mph 18.4 mph N/A   Overcast
4:13 PM 62.6 °F 60.8 °F 94% 29.94 in 10.0 mi East 12.7 mph - N/A   Overcast
4:33 PM 62.6 °F 60.8 °F 94% 29.95 in 10.0 mi East 9.2 mph - N/A   Overcast
4:53 PM 62.6 °F 60.8 °F 94% 29.95 in 5.0 mi East 11.5 mph - N/A   Overcast
5:13 PM 60.8 °F 60.8 °F 100% 29.94 in 3.0 mi East 10.4 mph - N/A   Light Drizzle
5:33 PM 60.8 °F 60.8 °F 100% 29.96 in 3.0 mi East 9.2 mph - N/A   Drizzle
5:53 PM 60.8 °F 60.8 °F 100% 29.94 in 2.5 mi ENE 10.4 mph - N/A Rain Rain
6:13 PM 60.8 °F 60.8 °F 100% 29.94 in 3.0 mi East 12.7 mph - N/A   Light Drizzle
6:33 PM 60.8 °F 60.8 °F 100% 29.95 in 3.0 mi East 11.5 mph - N/A Rain , Thunderstorm Rain
6:53 PM 60.8 °F 60.8 °F 100% 29.95 in 3.0 mi ENE 11.5 mph - 0.01 in Rain Rain
7:13 PM 60.8 °F 60.8 °F 100% 29.92 in 2.5 mi East 16.1 mph 20.7 mph 0.01 in   Drizzle
7:33 PM 60.8 °F 60.8 °F 100% 29.91 in 7.0 mi East 13.8 mph 19.6 mph 0.01 in   Overcast
7:53 PM 60.8 °F 60.8 °F 100% 29.90 in 7.0 mi ENE 15.0 mph - N/A   Overcast
8:13 PM 60.8 °F 60.8 °F 100% 29.91 in 7.0 mi East 13.8 mph - N/A   Overcast
8:33 PM 60.8 °F 60.8 °F 100% 29.90 in 7.0 mi East 12.7 mph - N/A   Overcast
8:53 PM 60.8 °F 60.8 °F 100% 29.90 in 7.0 mi East 12.7 mph - N/A Rain Light Rain
9:13 PM 60.8 °F 60.8 °F 100% 29.90 in 7.0 mi East 12.7 mph - N/A   Overcast
9:33 PM 60.8 °F 60.8 °F 100% 29.90 in 7.0 mi East 11.5 mph - N/A   Overcast
9:53 PM 60.8 °F 60.8 °F 100% 29.90 in 5.0 mi East 11.5 mph - N/A   Overcast
10:13 PM 60.8 °F 60.8 °F 100% 29.89 in 5.0 mi East 12.7 mph 17.3 mph N/A   Overcast
10:33 PM 60.8 °F 60.8 °F 100% 29.89 in 7.0 mi East 11.5 mph 17.3 mph N/A   Overcast
10:53 PM 60.8 °F 60.8 °F 100% 29.87 in 5.0 mi East 12.7 mph - N/A   Overcast
11:13 PM 62.6 °F 62.6 °F 100% 29.85 in 7.0 mi East 16.1 mph 20.7 mph N/A Thunderstorm Overcast
11:33 PM 62.6 °F 62.6 °F 100% 29.82 in 7.0 mi East 16.1 mph 24.2 mph N/A Thunderstorm Overcast
11:53 PM 62.6 °F 62.6 °F 100% 29.81 in 7.0 mi East 16.1 mph 23.0 mph N/A Thunderstorm Overcast